GFSWCAN_850_rhum_072.txt.gz
RH
100 100 98 93 95 94 99 100 98 92 94 96 91 97 99 99 99 99 100 99 98 100 99 96 81 86 76 66 80 71 79 82 91 94 90 88 93 75 66 73 88 90 95 97 94 97 94 54 70 72 73 53 50 48
100 92 84 89 98 100 94 93 100 99 92 99 94 90 92 99 99 99 99 99 100 99 100 99 95 74 66 55 56 66 62 73 77 88 91 84 91 94 79 88 73 84 77 88 85 81 59 50 46 44 39 36 31 36
95 89 89 94 86 90 81 84 94 100 97 99 100 92 95 98 99 99 99 100 100 99 99 100 97 92 81 70 60 63 59 52 62 50 85 83 75 80 88 83 60 58 65 81 74 44 55 40 44 46 41 41 37 35
98 94 87 88 92 94 89 80 77 94 100 99 99 99 91 84 93 100 99 100 99 98 99 85 67 90 84 81 67 58 58 51 58 67 81 96 92 71 83 64 71 59 59 64 61 52 62 42 46 64 63 54 52 49
96 97 87 94 98 98 93 99 88 81 92 98 100 100 97 82 84 100 99 98 97 61 96 77 65 56 65 76 75 69 61 56 58 79 96 93 87 84 88 87 87 91 77 86 78 97 97 92 84 89 77 71 50 46
97 92 91 94 98 93 96 87 91 82 91 99 99 100 100 90 91 98 100 99 91 81 75 100 67 68 60 81 81 73 68 67 69 83 92 91 91 85 96 89 89 92 97 99 86 96 96 95 96 82 81 82 68 61
83 95 91 96 89 90 94 96 96 88 84 98 100 99 100 100 98 99 96 83 98 93 96 98 96 75 72 91 100 98 94 97 97 94 92 87 95 81 99 99 95 98 96 95 100 98 96 98 100 91 82 84 75 68
99 89 100 99 100 91 99 97 100 99 90 100 100 99 99 100 100 98 81 88 100 99 98 100 98 100 94 99 99 97 96 91 93 85 95 96 91 92 99 90 90 96 97 94 96 99 100 97 99 92 85 87 77 74
96 100 100 100 98 100 98 100 99 100 100 98 100 100 100 99 100 98 100 100 99 90 98 100 98 99 97 100 99 96 94 100 92 99 93 87 94 98 94 92 94 100 100 100 99 99 100 96 100 99 93 91 94 88
94 93 100 100 99 99 100 100 100 100 100 100 100 99 100 98 79 99 100 99 99 98 100 99 99 100 100 99 100 98 95 96 94 91 83 94 96 98 98 96 100 100 100 99 100 99 98 99 99 100 100 100 99 97
94 89 93 100 100 98 99 99 98 100 98 96 98 99 100 99 98 97 99 99 99 99 99 99 97 99 86 95 96 93 96 97 99 95 91 96 93 94 98 97 100 100 100 97 99 100 100 100 100 100 100 100 100 100
100 98 95 93 99 97 84 98 83 82 86 97 98 99 94 98 98 97 97 93 91 94 96 96 100 98 99 90 90 98 96 96 90 98 94 96 94 99 99 100 100 100 98 96 95 96 98 98 98 98 98 97 96 95
97 99 100 99 100 95 87 89 88 89 82 84 61 57 61 78 87 92 98 94 96 98 98 99 95 95 99 91 98 99 99 98 93 95 95 96 96 98 100 100 100 96 96 96 96 96 96 97 97 96 95 96 96 96
91 86 77 94 86 79 74 55 48 60 48 55 70 91 90 94 97 97 97 98 98 98 100 100 98 99 100 94 99 95 97 92 95 95 96 93 98 96 96 99 95 96 96 96 97 96 98 97 98 97 96 96 96 96
97 94 76 66 75 75 62 52 42 40 51 74 73 99 96 96 96 96 97 96 95 98 98 99 98 88 96 94 97 93 94 95 93 97 95 97 96 96 96 96 97 97 97 96 96 96 96 96 95 95 96 96 95 96
90 84 71 72 55 56 53 47 38 44 65 73 85 91 91 93 95 94 96 96 97 97 98 97 97 94 96 95 91 95 86 96 98 96 97 96 95 95 95 95 95 95 96 96 95 96 96 95 95 96 96 96 96 95
73 78 67 53 53 46 42 42 45 68 82 85 97 96 100 96 96 96 98 91 97 96 97 95 94 96 89 91 89 90 96 96 96 96 96 96 96 96 96 95 95 95 95 95 95 95 95 96 96 95 91 96 95 95
97 95 77 61 62 46 41 50 63 74 95 96 94 98 96 94 93 84 72 73 77 83 94 94 92 92 95 94 95 95 96 97 96 96 96 96 96 96 96 95 96 96 95 95 95 96 96 96 94 94 95 96 95 95
96 87 70 55 50 49 56 61 56 93 97 93 92 88 90 83 78 76 61 56 53 55 61 76 90 93 95 95 95 96 96 96 97 98 98 97 96 96 96 95 95 95 95 96 96 95 95 95 95 96 96 95 92 93
86 85 73 61 54 59 78 80 63 77 94 91 90 84 84 85 73 70 69 71 66 73 88 95 98 99 98 100 90 94 96 96 95 95 97 96 97 96 96 96 96 96 96 96 95 95 96 95 95 92 87 85 80 86
67 66 66 58 71 78 80 71 85 79 91 74 79 64 60 61 75 75 77 64 78 93 95 98 100 98 98 96 95 94 94 95 94 94 96 96 97 96 96 96 96 96 95 96 95 93 74 70 72 69 60 56 66 76
53 50 49 49 58 60 63 76 76 80 78 78 97 71 79 85 82 79 62 88 97 99 98 98 97 97 96 96 97 96 96 96 96 95 96 96 96 95 95 96 96 90 77 69 65 59 61 65 59 48 40 38 42 44
47 50 50 57 62 72 91 95 88 90 94 92 80 81 83 83 72 66 94 96 96 98 96 96 97 96 96 100 98 98 98 96 94 95 95 89 79 69 61 57 58 54 50 59 71 77 70 73 68 50 45 42 38 35
50 61 70 73 69 98 71 77 68 74 75 90 93 99 93 77 62 80 99 98 97 98 96 97 96 95 95 91 86 80 73 65 57 53 58 56 48 52 55 53 54 50 51 50 50 54 67 72 65 53 50 44 44 47
52 84 73 91 75 82 92 94 93 90 100 96 96 99 96 70 96 100 100 100 100 97 91 92 88 84 82 86 89 87 88 88 75 61 64 66 59 54 54 56 56 53 47 54 44 46 41 45 50 47 47 53 52 49
97 97 93 96 94 90 95 100 97 98 97 98 100 88 71 93 97 100 96 88 88 88 88 87 80 75 69 62 57 58 59 67 73 74 71 76 74 71 66 52 57 58 55 53 48 44 40 38 38 37 39 43 44 45
99 100 89 92 85 83 93 87 86 93 100 99 98 96 94 100 100 98 100 94 91 90 90 86 81 77 72 68 37 29 32 36 39 43 41 45 47 45 46 48 59 52 44 42 42 42 38 34 36 39 44 48 53 54
87 82 88 90 87 87 100 100 100 100 100 93 83 100 100 96 98 100 97 93 91 93 88 80 66 50 46 48 46 49 52 60 64 68 67 58 44 37 40 43 44 41 35 33 32 32 32 33 35 40 47 51 52 53
82 78 66 100 93 96 100 100 100 100 100 83 100 100 100 100 100 99 98 94 96 94 90 84 78 74 58 49 41 41 57 72 73 77 83 87 85 52 42 42 45 46 46 47 43 40 42 44 48 53 61 60 59 57
86 76 91 93 98 100 100 100 100 99 93 93 97 100 99 100 100 100 92 93 95 99 100 97 72 78 84 52 45 40 38 40 42 46 45 50 49 39 41 42 42 46 48 50 47 46 44 48 49 51 54 55 55 56
75 78 91 95 100 96 91 90 91 85 87 91 88 95 98 99 100 100 100 96 90 88 86 84 87 89 86 65 49 41 49 49 41 37 35 36 36 38 39 40 41 42 44 46 46 46 46 48 52 55 57 57 59 58
80 85 89 99 99 95 100 87 80 83 84 83 88 87 90 89 96 100 100 100 99 96 95 96 96 95 81 67 38 30 34 37 38 37 37 38 40 41 43 45 47 47 46 46 47 48 49 50 52 53 54 56 58 58
77 73 81 93 100 98 93 86 90 95 93 97 98 98 96 87 93 97 94 93 96 96 97 96 95 92 74 32 29 34 36 36 35 36 38 41 44 45 47 49 50 50 51 50 49 48 48 49 50 51 52 52 51 50

GFSWCAN_850_rhum_075.txt.gz
RH
98 100 100 100 97 94 91 92 98 97 98 100 98 96 99 98 99 99 98 97 99 99 98 80 74 83 83 84 88 83 94 98 100 96 90 85 86 68 60 59 78 75 75 81 82 85 81 51 59 56 46 54 53 40
100 100 92 95 94 91 89 88 90 95 94 100 97 95 99 100 99 99 100 99 100 99 100 99 84 78 64 59 74 85 69 81 80 82 82 75 82 84 67 66 73 77 74 76 72 64 54 59 52 42 44 52 52 54
99 99 94 93 82 85 90 86 88 86 93 100 99 98 99 99 99 99 100 100 100 99 100 99 100 92 92 86 73 85 79 64 66 56 80 78 76 70 83 73 64 64 63 70 70 51 52 49 49 82 81 88 84 72
98 95 93 82 78 92 94 95 89 81 93 99 99 99 99 99 99 99 99 99 99 99 99 98 100 98 90 80 81 77 69 74 72 66 85 91 78 68 72 60 60 51 59 62 64 50 66 46 82 97 82 79 74 65
78 82 81 84 84 91 94 98 89 89 86 100 99 99 99 99 99 99 99 98 100 82 97 83 82 68 68 82 82 82 82 91 86 81 99 88 82 83 84 82 75 70 64 72 58 89 93 86 94 99 91 98 94 80
98 86 99 100 98 89 94 92 90 98 86 100 99 99 99 99 99 99 99 99 99 98 96 98 64 68 60 83 80 81 84 91 98 96 92 91 84 78 88 83 81 90 94 97 86 99 93 98 97 98 90 91 94 82
98 100 99 98 98 95 94 96 88 87 92 99 99 100 99 99 98 97 87 88 88 98 72 91 89 78 71 74 80 91 88 91 91 99 98 85 90 87 90 95 96 98 98 96 100 98 95 98 99 100 92 88 95 94
100 93 100 100 99 99 97 96 88 87 99 100 100 99 100 100 98 99 88 84 88 82 90 98 96 96 93 98 98 98 100 100 100 100 98 95 96 91 92 89 91 94 94 94 99 100 100 100 100 99 99 87 90 85
98 100 99 100 100 96 96 91 85 99 99 100 99 99 100 100 97 98 100 100 94 83 98 96 96 97 98 100 98 100 100 100 100 100 99 92 95 97 94 91 92 100 100 100 100 99 100 100 100 99 100 99 98 99
89 86 99 100 100 100 100 100 100 99 100 100 100 97 100 99 98 98 100 99 99 99 99 96 97 99 99 99 99 100 90 98 97 97 94 96 93 97 100 100 100 100 100 100 99 94 99 98 97 97 97 97 97 100
94 96 99 98 97 98 95 98 99 99 99 98 99 99 100 100 98 99 99 98 99 99 100 99 98 99 100 96 98 97 98 95 97 96 93 91 88 88 98 100 100 100 100 100 100 100 97 96 97 97 96 96 96 98
99 99 100 100 97 98 94 98 94 90 94 96 96 99 99 98 91 88 98 97 93 96 97 99 99 99 100 94 94 97 96 95 89 95 93 91 89 94 94 100 100 100 100 100 99 97 97 97 96 96 95 96 96 96
94 99 100 100 91 78 86 93 89 84 84 72 55 54 60 77 85 90 97 94 94 96 97 98 98 94 96 89 95 90 95 94 81 90 90 88 92 95 100 100 100 100 100 97 96 97 96 96 96 95 96 96 96 95
90 80 96 100 89 72 54 79 76 61 44 50 67 88 89 95 96 95 94 94 97 98 97 98 99 96 95 92 96 84 95 86 92 92 91 88 97 100 99 97 98 97 95 95 96 96 96 96 97 96 95 96 96 96
90 72 72 80 68 52 45 43 54 52 49 71 73 100 95 96 96 96 96 96 97 97 98 99 87 81 91 91 92 87 87 90 87 91 88 96 100 96 95 95 96 96 96 95 95 95 95 96 95 95 96 96 95 95
86 68 66 62 61 52 48 39 38 45 64 73 87 91 90 92 93 91 94 94 98 97 95 81 91 89 96 88 82 93 80 89 89 90 99 100 98 97 96 96 95 95 95 95 95 95 96 96 96 96 96 96 96 95
79 73 67 49 48 45 42 39 47 69 80 84 97 96 96 96 97 96 97 94 96 96 95 92 88 94 87 88 89 87 91 90 94 99 96 96 96 96 96 96 96 96 96 96 96 96 96 96 96 96 94 96 96 96
86 78 64 59 54 39 38 47 57 73 95 93 92 96 90 92 93 85 78 80 87 96 94 91 86 90 93 92 92 93 96 96 96 96 96 96 96 96 96 95 96 95 95 95 95 95 95 95 95 95 95 96 95 96
92 79 69 52 45 41 51 58 58 92 97 92 90 88 84 79 82 78 62 63 64 69 74 92 88 90 92 92 92 99 98 97 100 97 96 96 96 96 96 96 96 96 95 96 96 95 96 96 95 96 95 93 85 88
86 74 58 50 42 50 70 68 61 77 91 88 79 75 78 78 71 71 71 74 71 80 88 91 94 98 97 99 91 92 94 94 93 95 96 96 96 96 95 95 95 96 95 96 95 95 96 95 89 86 82 79 76 81
77 67 54 44 62 65 71 71 76 72 82 69 73 79 59 61 73 77 84 72 80 94 90 100 100 99 98 98 97 95 95 95 93 92 93 96 96 96 96 96 96 95 95 95 95 84 66 60 63 66 66 63 72 81
57 49 47 48 53 59 63 72 72 76 74 78 97 65 75 84 84 82 67 88 98 100 100 100 99 100 98 95 98 95 96 95 94 94 95 96 97 96 96 96 95 88 72 60 57 54 52 48 44 38 38 42 52 59
51 49 52 58 67 74 96 97 93 90 93 93 79 74 81 82 74 66 94 95 99 98 96 96 96 96 92 98 95 98 99 96 94 94 94 85 71 59 54 52 53 52 54 64 69 66 53 47 45 36 36 37 38 37
50 56 63 70 70 99 84 80 72 79 78 88 90 97 89 80 66 82 97 100 98 98 96 96 96 95 96 96 89 83 79 73 60 57 60 57 51 55 56 53 52 49 50 56 68 70 64 59 53 47 45 41 42 43
51 85 74 92 76 82 91 93 92 88 100 96 96 100 98 71 94 99 100 96 98 96 96 97 96 94 89 92 92 89 87 83 73 62 68 72 64 60 61 60 60 54 50 62 57 63 62 58 57 56 52 54 51 50
97 99 94 98 97 88 96 100 98 99 96 100 100 91 74 90 94 100 93 90 95 91 89 84 77 72 70 72 71 75 71 72 75 67 69 76 72 64 60 57 59 58 55 50 52 54 49 46 48 48 49 52 52 51
100 99 92 94 88 87 95 89 88 93 100 100 98 94 88 99 100 96 100 98 95 92 88 83 78 74 69 49 32 29 33 37 38 40 41 42 41 38 39 39 43 46 41 46 39 37 38 38 38 40 43 46 49 52
88 84 87 91 88 89 100 100 100 100 98 94 82 99 96 92 98 100 100 96 90 87 81 68 52 50 43 38 34 40 43 48 50 55 55 50 41 35 36 37 38 34 31 30 31 32 32 35 38 45 54 59 59 57
83 78 67 100 93 97 100 100 100 100 100 82 99 100 100 100 100 100 100 98 97 89 81 69 67 58 47 40 31 31 40 50 56 56 57 51 55 52 40 40 41 39 37 37 37 40 44 48 52 55 57 60 58 57
85 78 92 94 99 100 100 100 100 100 95 96 98 100 97 100 100 100 100 100 100 98 93 80 65 73 50 35 32 33 36 38 38 36 36 37 38 38 40 42 42 42 43 45 47 48 46 49 51 52 54 55 56 58
81 81 92 96 100 99 98 98 94 91 91 92 89 95 98 100 100 99 96 93 93 94 85 76 84 85 62 45 37 31 36 39 35 35 34 36 37 39 41 43 44 45 47 48 48 49 50 52 53 52 54 56 58 58
82 88 90 100 99 97 100 91 78 82 84 84 88 89 90 90 98 98 98 97 98 96 96 95 91 81 62 38 27 28 32 33 34 36 38 40 42 44 46 47 50 51 51 50 49 48 49 49 50 52 54 55 56 54
79 83 87 96 100 100 93 86 87 92 91 95 95 96 93 88 97 99 95 99 100 100 97 91 90 80 47 29 29 32 33 34 35 37 40 44 46 49 50 52 52 52 52 51 50 48 48 49 50 51 51 50 49 47

GFSWCAN_850_rhum_078.txt.gz
RH
96 96 98 98 93 93 95 91 96 92 92 96 95 100 99 99 99 99 98 90 83 98 86 72 70 69 60 68 72 93 98 100 99 96 73 65 62 48 44 43 64 64 71 80 66 74 73 41 39 44 41 39 43 43
100 100 94 96 96 93 93 85 84 84 85 94 94 99 100 98 98 99 100 99 88 99 96 90 81 80 71 77 76 91 67 78 65 67 61 55 60 58 45 51 37 58 44 51 46 44 40 54 44 52 67 66 65 66
100 96 86 82 83 82 80 80 88 90 82 88 91 97 100 98 99 99 100 98 99 100 98 99 99 79 88 92 83 97 87 73 71 56 58 55 62 42 63 49 38 42 40 56 53 36 31 42 53 67 74 73 74 72
96 90 90 92 94 97 86 85 93 94 90 86 89 98 99 97 99 99 99 98 99 99 99 94 91 93 98 95 98 86 82 81 76 78 64 64 59 47 48 39 43 37 40 40 39 33 41 38 66 78 80 77 79 76
100 100 100 96 97 98 94 91 88 98 89 85 93 100 99 98 99 99 99 99 92 84 89 86 100 99 84 100 99 97 98 97 97 98 98 76 56 63 57 58 46 34 38 47 45 67 73 62 71 95 85 82 84 82
98 94 100 98 100 98 92 91 94 93 90 91 98 99 99 99 100 100 100 100 98 91 99 92 86 94 85 100 95 98 100 100 99 98 96 74 79 71 69 53 54 71 78 81 71 87 83 81 84 95 90 88 89 86
92 98 99 99 94 98 98 94 93 95 99 95 100 99 99 99 99 98 95 93 99 99 98 88 84 84 83 92 100 99 100 100 98 99 96 70 73 68 80 69 88 84 85 84 96 96 84 99 100 100 98 95 92 93
92 99 95 100 93 92 93 90 91 93 98 99 99 99 99 99 100 99 98 97 98 97 94 87 85 84 87 86 88 95 99 99 100 99 99 73 68 68 86 88 83 85 84 91 90 93 98 99 100 98 98 99 99 99
93 100 97 99 96 91 89 90 95 100 99 99 99 99 99 98 97 99 99 92 86 90 86 94 86 92 87 89 98 99 98 100 100 100 99 96 99 98 89 86 86 89 90 91 92 83 97 100 100 98 94 94 99 99
98 99 94 94 100 97 99 99 100 99 99 99 98 96 99 100 99 99 100 99 98 100 98 83 90 96 93 98 97 97 98 100 100 100 99 100 91 92 95 92 90 94 96 98 94 86 97 95 100 100 100 99 99 97
100 100 100 100 100 100 99 100 100 98 99 91 99 100 99 100 98 99 98 93 97 94 91 93 87 97 99 100 99 99 100 100 96 98 98 91 84 80 85 91 92 95 98 98 100 100 100 100 100 100 100 100 100 95
100 100 99 100 100 100 100 99 98 93 83 87 97 99 99 98 95 84 92 99 92 88 97 100 98 99 99 100 84 99 97 93 92 88 86 87 82 76 79 85 91 96 100 100 100 100 100 100 100 100 100 100 96 94
100 99 80 78 94 94 92 96 97 86 81 76 56 63 61 75 83 82 89 88 89 92 97 99 100 99 99 99 99 89 92 94 75 88 84 83 77 80 86 88 92 100 100 100 100 100 100 100 100 100 100 100 98 96
98 98 90 78 100 93 82 79 77 64 45 52 69 81 79 84 83 84 82 85 95 98 99 100 92 93 91 89 92 86 90 79 89 85 85 76 87 95 100 100 100 100 100 100 100 100 100 100 100 96 95 96 96 96
74 98 97 55 60 81 67 66 62 48 46 81 72 89 86 88 91 95 100 96 99 97 100 91 84 75 83 84 81 80 82 87 78 81 77 85 97 99 100 100 100 100 99 99 98 98 96 96 96 96 96 96 96 96
78 67 81 80 63 51 41 40 41 42 70 83 87 84 89 85 89 92 97 96 100 99 99 81 80 78 85 74 76 85 73 80 82 80 88 93 100 100 100 100 100 96 97 98 96 96 96 96 96 96 96 96 95 96
76 69 52 50 51 46 43 39 46 73 84 82 89 97 96 90 91 94 99 100 98 99 92 80 80 90 70 76 81 76 83 84 85 94 100 100 100 100 98 96 96 96 96 96 96 95 95 96 96 96 95 96 96 96
76 62 59 55 42 40 38 48 71 76 83 88 84 93 93 100 93 94 100 100 98 88 82 86 70 79 85 84 85 86 91 96 100 100 100 100 97 94 94 94 94 95 95 95 95 95 96 96 96 96 96 96 96 97
83 72 58 53 47 39 56 65 71 78 88 92 94 92 90 91 92 99 94 87 86 88 90 79 77 80 83 81 83 90 94 93 97 100 100 100 99 96 96 96 96 96 95 95 96 96 96 95 96 96 97 100 100 100
77 62 56 46 41 46 73 78 76 73 76 83 77 76 76 79 90 98 90 79 75 74 76 79 84 88 89 99 98 99 100 100 98 98 100 100 100 98 98 100 100 96 96 96 96 96 96 96 87 83 89 100 100 100
66 54 48 43 53 61 80 76 78 76 76 66 75 63 66 76 83 85 82 80 79 80 81 90 96 100 100 100 100 100 100 100 100 97 100 100 100 100 100 99 97 97 100 100 99 91 76 87 78 77 75 71 74 72
59 47 47 45 53 64 79 82 77 80 71 73 73 66 74 77 80 84 77 80 84 93 94 96 100 100 100 100 100 100 99 100 98 100 98 100 100 100 100 100 100 100 91 86 78 60 50 42 40 44 50 55 68 74
51 49 54 55 69 84 90 98 84 77 77 74 67 63 68 74 76 74 79 80 93 100 100 100 100 100 100 100 100 97 97 100 100 100 97 87 75 65 64 58 78 96 96 82 73 59 44 38 39 38 41 58 57 46
44 47 60 72 82 96 95 84 72 74 73 74 71 76 72 70 75 72 81 83 95 100 100 100 100 100 100 100 100 98 81 69 60 55 60 80 83 62 58 53 47 47 61 66 67 55 47 43 42 40 38 40 42 49
48 80 77 87 82 79 80 80 80 73 85 82 82 82 82 74 76 78 80 86 94 100 100 100 100 99 96 99 87 70 65 67 78 58 51 52 50 51 53 48 47 42 40 55 52 50 45 41 40 41 43 46 46 46
90 99 87 85 85 73 75 82 83 85 83 88 88 83 82 73 77 87 74 91 99 100 93 100 100 99 97 98 97 89 66 58 58 69 57 59 59 88 93 95 100 62 44 43 44 44 42 40 40 41 44 46 45 49
92 93 91 94 86 83 87 85 81 79 86 87 80 77 68 77 87 84 100 100 100 86 83 82 89 90 67 45 37 35 36 38 42 46 41 40 38 38 46 80 81 53 43 46 44 45 47 42 41 42 45 48 50 52
89 85 80 89 90 87 87 85 86 89 88 83 70 83 74 76 84 96 100 96 88 86 78 69 69 61 39 34 31 34 40 45 47 48 50 46 40 35 36 38 38 35 34 36 42 42 42 42 42 43 50 56 54 54
88 90 74 91 86 88 92 90 87 95 100 82 79 82 87 100 100 100 100 97 90 80 63 54 50 47 38 32 30 35 41 46 64 54 52 70 59 49 39 40 42 44 44 45 42 41 45 47 50 49 49 52 54 55
94 92 85 88 87 90 97 100 100 100 100 100 99 98 100 100 100 100 100 95 89 82 73 65 57 53 36 29 27 32 35 36 36 35 40 45 39 37 38 40 41 43 46 48 50 51 47 47 48 49 52 54 56 58
96 93 87 85 88 98 100 100 96 97 100 100 98 98 99 100 100 100 100 97 95 91 80 67 71 58 40 35 31 31 35 36 34 32 32 34 35 37 39 41 43 45 47 48 48 49 49 51 53 54 55 56 57 56
95 89 83 86 89 100 98 92 92 96 100 95 99 90 92 100 100 98 94 93 92 84 79 82 83 70 50 32 26 28 31 32 32 34 37 40 42 44 45 46 48 49 50 51 50 50 50 50 50 52 53 54 54 53
90 90 89 92 97 98 92 96 86 91 95 94 100 92 91 96 98 95 93 92 93 95 94 90 85 73 41 34 33 32 33 34 36 38 40 45 46 48 51 52 52 52 52 52 51 50 51 52 53 53 53 51 50 46

GFSWCAN_850_rhum_084.txt.gz
RH
94 97 95 100 100 100 97 96 96 99 98 94 97 93 99 99 100 99 93 91 86 89 74 61 52 52 47 42 72 74 98 96 99 100 96 59 66 54 50 41 51 58 78 78 67 69 72 28 29 43 54 49 48 47
99 98 99 100 98 98 98 99 90 86 95 94 97 95 96 99 100 99 100 88 96 92 67 66 60 60 68 70 98 97 93 81 60 70 56 57 84 65 51 50 39 62 47 55 48 48 32 48 53 52 50 50 51 52
99 100 100 98 99 91 88 91 88 93 87 85 94 99 99 99 99 99 100 98 98 100 84 76 69 67 66 72 81 97 100 94 96 91 95 79 79 47 66 48 54 63 40 83 60 68 74 89 66 57 54 57 58 58
100 100 98 97 99 99 92 93 94 93 89 91 83 82 92 98 100 100 99 98 99 98 86 63 60 60 63 73 68 80 79 85 88 92 98 89 96 42 56 44 48 56 66 52 55 65 87 94 84 77 62 62 65 65
100 92 98 91 96 93 94 99 94 99 97 92 92 82 83 85 99 100 99 98 94 70 73 62 53 52 59 62 81 85 92 93 98 99 100 95 52 56 52 50 70 72 78 84 98 72 86 92 80 77 73 71 74 71
98 94 94 95 96 91 95 94 94 99 100 94 92 85 90 86 99 100 99 99 90 80 97 98 76 49 68 68 80 87 90 95 98 100 98 72 56 69 94 70 81 61 66 69 68 68 70 74 91 87 85 86 87 84
99 93 95 93 92 100 95 98 99 99 99 97 97 92 92 100 98 97 94 82 81 96 99 99 95 63 66 76 84 91 93 99 99 98 96 76 76 78 86 97 98 70 67 67 68 68 66 79 92 85 80 80 84 90
98 97 100 88 97 100 94 95 99 100 99 99 94 94 96 100 100 98 74 74 77 99 94 94 93 84 82 95 92 95 99 100 100 99 89 69 66 91 99 75 67 70 70 70 69 66 78 76 76 76 79 83 82 91
99 99 93 95 100 98 97 98 100 100 100 95 94 100 99 99 99 93 80 96 100 91 91 95 88 99 95 98 97 100 99 100 98 100 95 78 91 95 94 78 70 70 71 70 69 67 73 76 79 82 87 95 97 100
99 98 98 96 92 98 100 100 100 99 99 99 99 96 100 99 95 99 100 99 98 94 98 86 74 98 81 88 88 95 99 99 100 93 82 96 92 83 78 74 72 72 72 72 73 77 82 86 91 94 100 99 100 100
98 100 100 100 100 100 100 100 99 99 99 98 99 100 100 100 94 98 99 98 98 99 79 74 80 91 94 91 91 79 92 91 85 94 92 95 88 85 78 76 76 78 77 80 82 94 98 99 100 100 99 100 100 100
97 100 99 100 100 96 91 99 99 99 94 88 97 99 99 98 98 88 91 81 67 75 79 84 93 91 96 93 84 90 88 87 90 95 99 92 88 79 80 87 83 86 93 95 95 99 100 99 97 95 95 95 98 100
99 100 99 99 95 97 99 100 100 97 90 81 78 91 78 80 96 80 83 84 89 96 97 96 96 90 99 98 100 92 100 95 82 96 88 90 84 83 86 90 93 96 98 97 100 100 100 96 96 97 100 99 98 97
98 100 100 99 100 99 99 76 54 50 60 81 75 82 86 80 86 91 92 93 99 99 99 98 96 99 99 87 97 83 92 88 86 88 89 89 93 97 98 96 96 97 94 99 100 100 98 98 98 99 100 98 97 96
100 100 100 99 100 96 80 68 75 66 61 82 71 86 83 87 91 97 100 94 99 98 99 99 96 94 91 87 78 83 84 86 84 90 90 93 97 97 97 96 96 97 93 96 97 100 100 100 99 98 97 96 95 95
98 99 99 99 100 99 99 75 46 61 83 83 86 87 95 82 91 91 97 97 98 99 100 93 91 91 90 75 72 86 83 88 90 88 91 93 98 98 99 100 94 94 94 96 100 100 99 95 94 95 96 95 96 96
100 94 92 91 75 70 46 45 62 76 78 79 86 96 96 91 94 97 99 99 98 98 91 83 77 81 60 76 78 77 88 87 83 93 96 99 98 96 92 93 95 95 95 98 100 100 100 100 100 98 95 97 96 95
98 79 80 64 51 45 48 71 73 71 82 91 84 96 96 99 98 96 98 93 89 76 73 78 60 73 85 85 87 89 94 98 97 99 99 98 96 97 94 94 94 96 99 97 97 97 97 97 100 100 96 96 98 99
95 56 49 47 47 52 70 74 70 75 88 93 96 95 91 94 94 95 90 85 78 76 71 66 77 84 88 80 82 88 91 92 95 97 99 93 96 98 99 96 96 98 96 96 97 100 97 95 97 95 95 98 100 100
67 55 47 43 51 66 71 73 71 74 82 83 85 77 82 88 93 89 79 69 68 68 72 77 85 93 91 98 95 94 92 92 93 96 98 100 98 94 98 96 95 96 98 97 97 98 97 99 95 95 99 100 100 100
58 55 59 72 71 71 68 69 69 72 79 75 75 74 84 84 83 78 74 71 75 74 80 90 93 100 98 97 98 99 99 99 98 98 92 98 100 99 100 99 95 96 96 96 98 94 96 100 100 100 100 100 98 88
71 72 77 64 76 75 74 69 67 68 74 69 66 75 86 82 75 72 70 73 79 96 93 92 94 96 98 98 99 96 99 97 96 92 90 96 98 99 97 97 100 98 97 97 100 100 100 100 100 100 99 100 100 100
73 79 82 75 82 80 89 91 73 69 73 63 62 65 70 70 66 64 69 74 92 97 95 97 100 99 99 98 97 98 96 98 98 98 98 95 93 94 92 93 96 96 97 94 98 100 84 86 88 98 94 100 99 88
51 51 92 88 78 84 91 72 60 60 59 62 62 69 68 68 65 64 75 81 90 92 92 96 94 91 90 86 83 80 76 78 82 85 81 77 81 85 86 91 99 100 98 98 100 100 100 86 96 100 98 100 100 100
65 76 89 85 77 74 72 71 65 64 73 65 69 70 73 69 68 69 75 85 89 91 92 90 87 88 85 86 86 84 82 76 76 79 88 88 90 86 86 89 98 91 100 100 100 100 100 100 100 100 100 100 100 100
82 88 78 72 74 67 66 76 73 71 68 74 72 66 72 66 69 74 70 89 96 94 94 96 89 78 76 76 78 86 94 84 79 89 97 96 97 100 97 91 94 100 94 95 100 100 100 100 100 95 100 87 75 74
79 81 73 74 65 69 72 64 61 65 69 74 73 75 68 72 78 79 97 95 95 95 97 96 82 79 82 97 85 65 40 26 54 67 47 38 38 42 75 96 100 98 91 84 99 100 100 99 100 100 100 100 100 100
75 76 81 83 80 75 75 70 71 74 71 61 58 70 72 72 78 92 99 100 94 100 100 98 91 90 95 84 51 28 24 26 31 40 60 78 76 46 36 33 33 43 41 42 68 71 98 100 100 100 100 100 100 100
78 76 76 84 72 75 78 76 74 77 82 68 70 74 77 94 100 100 100 98 97 100 100 96 76 55 44 44 52 90 99 96 100 71 89 94 100 100 84 66 92 81 100 100 81 58 48 50 62 65 84 95 98 99
82 76 74 74 77 80 90 92 91 96 92 90 90 97 96 98 99 99 100 96 98 100 100 100 97 84 62 73 59 43 33 29 30 67 100 100 99 77 65 99 100 98 78 100 100 100 100 90 96 96 100 100 100 100
77 77 72 72 80 90 95 96 97 93 90 90 88 89 92 100 100 99 99 100 100 100 100 100 100 91 74 91 98 86 97 51 31 30 31 35 44 81 57 46 53 74 100 100 98 100 98 79 100 100 100 100 100 100
78 75 72 78 84 98 97 92 88 90 93 89 94 96 98 92 94 100 100 100 100 100 100 100 100 97 62 36 32 31 30 28 28 30 33 39 43 41 41 43 46 50 55 51 70 78 82 75 74 94 100 100 99 72
80 78 77 79 84 79 93 83 72 83 79 86 94 98 100 91 92 100 97 97 100 100 100 98 90 76 44 32 35 34 30 29 31 33 35 38 39 42 44 44 46 47 47 50 59 76 70 66 60 59 50 49 48 46

GFSWCAN_850_rhum_087.txt.gz
RH
99 99 90 97 99 99 98 99 96 97 94 93 99 98 98 98 99 100 97 80 87 87 78 71 65 69 71 91 98 83 88 98 94 99 97 85 85 70 67 60 82 73 84 93 87 86 81 46 40 61 72 60 56 58
100 92 98 100 100 100 99 88 86 90 94 92 91 96 96 100 99 100 100 90 84 93 74 74 65 56 60 78 97 99 100 99 93 87 83 84 95 89 94 94 74 93 66 80 68 69 87 82 72 70 61 63 66 66
100 98 99 100 100 100 99 91 84 80 84 88 93 93 97 100 99 100 99 99 99 100 95 79 59 57 68 59 67 92 99 93 100 98 97 96 94 76 99 80 83 95 72 67 67 89 90 96 86 66 71 68 67 67
95 99 99 100 100 100 93 92 88 80 80 88 87 91 90 99 100 99 99 99 99 98 94 74 54 46 36 59 71 69 65 89 87 99 99 95 98 72 86 73 74 96 86 83 93 94 95 99 99 88 73 68 70 72
99 99 100 100 90 88 91 97 89 88 88 86 84 90 85 98 99 100 99 98 97 75 89 71 53 53 54 45 60 84 76 82 92 97 95 99 93 86 81 81 100 72 98 100 99 100 97 99 92 85 83 84 79 77
97 95 96 99 96 94 96 97 100 100 99 96 98 90 88 90 100 100 99 100 99 93 97 99 74 70 48 58 51 76 79 90 96 98 98 98 89 94 97 100 97 86 77 92 98 100 95 94 88 82 82 87 88 90
97 98 97 100 100 100 100 100 99 97 97 99 98 95 97 90 98 99 93 77 95 99 98 98 87 64 57 66 68 71 86 96 90 98 99 89 75 74 99 98 97 99 88 88 78 94 78 78 78 80 83 83 93 96
100 99 100 100 100 99 99 98 97 99 99 100 99 100 100 100 99 100 99 86 96 99 97 99 96 100 70 85 92 86 95 99 100 99 99 91 76 92 96 78 70 90 86 83 90 75 77 78 80 87 88 89 96 99
99 99 100 99 98 98 100 98 96 98 98 100 100 99 100 100 98 100 90 99 100 87 98 98 96 98 83 87 98 99 98 99 99 99 98 88 96 96 96 90 78 76 74 76 76 83 85 89 95 97 98 96 94 99
98 99 95 100 100 99 97 84 99 99 99 99 100 98 99 100 94 99 100 100 99 97 90 99 78 99 98 99 100 99 99 99 99 92 94 97 97 98 94 82 80 80 83 85 92 92 95 96 99 99 100 97 96 98
100 99 96 99 98 99 100 100 100 100 100 99 99 100 99 99 98 97 99 97 98 97 84 77 85 99 100 100 100 84 98 100 100 99 98 96 93 95 93 85 86 90 97 96 99 99 98 99 98 99 100 94 93 95
100 100 100 100 99 99 99 100 98 100 100 98 97 99 98 98 95 98 95 98 97 94 92 93 100 99 97 90 99 99 96 98 98 99 99 96 96 93 97 96 89 86 94 92 93 95 93 99 100 95 98 99 94 95
99 99 98 100 100 100 100 100 100 100 97 94 82 95 98 97 98 92 99 100 100 98 99 100 99 93 92 99 98 89 98 92 96 97 98 97 97 96 90 96 98 90 94 93 94 93 94 98 95 92 94 97 95 95
99 99 100 98 100 92 92 91 89 74 71 76 73 90 93 92 96 98 97 98 100 99 99 83 98 99 99 94 100 88 95 99 98 97 98 96 100 98 94 88 86 96 96 96 96 95 94 94 94 93 94 96 94 95
100 100 100 99 99 88 90 73 67 58 57 77 72 96 96 95 96 97 98 95 100 100 99 98 93 83 96 94 86 88 84 97 96 99 98 100 96 90 94 95 88 90 94 97 98 95 95 94 92 95 98 97 95 96
99 99 100 100 90 96 90 75 57 50 79 78 87 94 95 92 96 96 98 98 98 99 99 93 97 96 97 94 86 96 95 99 98 97 99 93 94 92 94 93 98 97 96 98 99 96 97 95 94 97 98 97 97 97
97 98 99 92 94 92 84 47 62 76 80 83 96 96 90 92 98 97 97 98 97 93 98 88 85 92 87 89 94 97 98 98 100 99 98 94 92 95 96 98 98 96 95 97 98 99 95 95 95 95 92 96 95 96
94 94 77 86 88 54 55 69 72 74 93 96 93 97 95 98 96 96 90 86 80 76 73 83 62 87 99 95 99 98 98 100 98 98 99 99 100 98 92 90 90 90 91 90 90 93 94 94 94 94 94 95 95 96
90 96 68 60 68 56 71 74 71 84 93 91 93 87 88 96 91 87 81 73 74 71 68 70 89 97 99 92 96 96 91 88 94 94 94 90 87 87 89 90 94 97 97 96 94 95 96 96 97 98 99 100 98 100
58 53 58 60 59 64 73 72 74 83 94 92 91 89 91 95 87 75 72 70 66 72 85 94 98 98 97 99 92 89 82 75 77 89 91 89 92 96 98 98 90 90 92 96 98 98 97 95 96 96 97 100 100 96
53 61 58 49 58 69 70 72 75 84 89 86 86 84 89 83 80 77 76 72 76 87 96 97 100 100 95 99 93 94 97 96 98 82 87 94 95 92 89 93 96 98 99 99 95 96 96 97 100 100 95 91 90 92
66 63 52 52 73 75 71 70 74 73 80 80 83 86 93 83 75 71 70 79 95 98 93 92 97 93 89 87 85 85 88 85 92 93 88 93 100 93 90 97 92 91 90 94 99 98 96 96 99 99 97 97 99 96
75 67 72 72 78 76 83 84 77 75 88 76 68 79 84 74 68 68 76 88 96 99 96 96 94 82 86 92 92 92 90 84 86 88 87 87 89 94 94 95 99 100 99 94 90 91 87 75 98 90 97 99 97 90
52 56 86 85 75 93 86 69 60 61 64 81 78 83 84 70 64 69 96 96 96 92 85 84 82 92 97 93 84 82 85 78 83 85 82 85 83 81 84 79 72 90 98 100 92 93 92 75 96 96 99 100 100 100
59 79 83 91 80 83 86 83 78 85 88 80 83 89 86 71 90 91 94 97 95 88 90 95 90 92 90 85 77 75 75 77 83 72 84 88 93 90 89 89 89 83 73 99 100 97 93 94 100 100 100 100 100 98
94 82 84 82 81 84 87 90 88 88 89 88 88 68 71 91 87 97 92 91 92 87 92 97 96 85 83 83 80 75 68 79 84 80 63 65 86 92 98 99 100 96 94 82 98 100 100 90 92 95 90 97 94 78
92 91 77 73 70 72 80 66 64 84 86 90 94 93 89 90 98 98 98 84 87 80 88 91 83 79 79 82 83 72 37 62 83 73 34 34 33 32 54 87 96 91 83 59 70 99 100 100 99 95 100 100 100 100
80 78 95 88 83 78 90 90 88 87 87 65 72 92 91 91 98 97 97 97 86 98 95 90 89 84 79 63 42 24 22 29 36 52 70 79 79 68 56 35 33 44 55 42 49 62 90 93 91 100 100 100 100 100
85 80 69 87 76 81 91 97 94 87 92 81 92 96 93 97 99 99 100 96 89 86 86 84 84 78 55 43 44 58 70 86 100 67 96 100 99 92 76 46 47 59 58 69 86 81 69 60 62 67 80 89 84 90
84 74 77 78 92 96 92 99 91 94 82 84 95 100 98 99 100 97 94 91 87 84 78 68 54 48 47 51 40 34 30 35 38 53 82 91 92 82 62 56 53 57 62 79 90 97 92 97 86 92 100 100 100 100
79 74 74 81 93 94 99 91 90 94 94 94 88 93 96 99 98 99 100 98 95 95 93 100 100 98 86 61 45 41 58 36 27 27 27 29 32 40 43 41 45 44 43 47 55 60 63 68 71 86 99 100 100 93
80 75 78 93 94 98 97 80 83 98 97 90 94 87 86 92 97 97 100 100 100 100 100 96 76 67 72 65 48 35 29 26 27 29 31 33 36 37 39 40 40 39 40 42 44 47 50 52 53 56 58 61 59 52
86 80 79 81 91 91 90 93 82 92 92 95 96 97 97 91 100 97 100 100 100 97 96 92 88 70 37 30 34 36 34 29 29 32 33 35 36 36 38 39 37 36 37 38 41 44 47 46 46 46 46 48 54 60